Regional Weather Roundup
Issued by NWS Cleveland, OH

Home | Current Version | Previous Version | Text Only | Print | Product List | Glossary Off
Versions: 1 2 3 4 5 6 7 8 9 10 11 12 13 14 15 16 17 18 19 20 21 22 23 24 25 26 27 28 29 30 31 32 33 34 35 36 37 38 39 40 41 42 43 44 45 46 47 48 49 50

000
ASUS41 KCLE 122312
RWRCLE
OHIO REGIONAL WEATHER ROUNDUP
NATIONAL WEATHER SERVICE WILMINGTON, OH
600 PM EST FRI FEB 12 2016

NOTE: "FAIR" INDICATES FEW OR NO CLOUDS BELOW 12,000 FEET WITH NO
SIGNIFICANT WEATHER AND/OR OBSTRUCTIONS TO VISIBILITY.

OHZ001>008-015>018-024>027-034-035-043-044-130000-
   NORTHWEST OHIO

CITY           SKY/WX    TMP DP  RH WIND       PRES   REMARKS
DEFIANCE       LGT SNOW  19  12  74 NW18G24   30.09R WCI   4
FINDLAY        MOCLDY    21   9  59 NW21G31   30.03R WCI   5
TOLEDO EXPRESS FAIR      19   8  62 W17G25    30.04R WCI   4
TOLEDO EXEC    CLOUDY    20   9  62 W18G29    30.04R WCI   5
LIMA           MOCLDY    20   8  60 NW23G30   30.05R WCI   3
$$

OHZ009>014-019>023-028>033-038-089-130000-
   NORTHEAST OHIO

CITY           SKY/WX    TMP DP  RH WIND       PRES   REMARKS
CLE-HOPKINS    FLURRIES  22  14  71 SW18      29.97S WCI   7
CLE-LAKEFRONT  SNOW      23  18  81 W33G44    29.96R VSB 1/2 WCI   5
CUY CO. ARPT   LGT SNOW  23  16  74 W16G25    29.92F WCI  10
LORAIN-ELYRIA  HVY SNOW  20  16  84 W16G28    29.97R VSB 1/4 WCI   6
ASHTABULA      LGT SNOW  20  14  77 SW12      29.90F WCI   8
AKRON-CANTON   LGT SNOW  20  13  74 W9        29.94R WCI   9
WOOSTER        LGT SNOW  19  14  81 W10       29.96S WCI   7
MANSFIELD      LGT SNOW  20  16  84 W14G21    29.96R FOG     WCI   7
YOUNGSTOWN     LGT SNOW  19  13  77 SW13      29.92S WCI   6
$$

OHZ042-051>053-060>062-070>072-077>081-130000-
  SOUTHWEST OHIO

CITY           SKY/WX    TMP DP  RH WIND       PRES   REMARKS
CINC-COVINGTON LGT SNOW  27  18  69 W16       30.12R WCI  15
CINC-LUNKEN    FLURRIES  28  17  63 W16       30.15R WCI  16
HAMILTON       LGT SNOW  26  20  77 W12G21    30.15R WCI  16
DAYTON         MOCLDY    23  18  81 W22G29    30.07R WCI   8
WRIGHT-PAT AFB FLURRIES  25  18  74 W14       30.07R WCI  13
DAYTON GENERAL SNOW      24  18  77 W10G22    30.08R VSB 1/2 WCI  14
WILMINGTON     LGT SNOW  24  17  74 W14       30.06R WCI  12
$$

OHZ036-037-039>041-045>050-054>059-063>069-073>076-082>088-130000-
  CENTRAL AND SOUTHEAST OHIO

CITY           SKY/WX    TMP DP  RH WIND       PRES   REMARKS
COLUMBUS       LGT SNOW  23  16  74 W15       30.04R WCI  10
OSU AIRPORT    LGT SNOW  23  17  78 W14       30.03R WCI  11
BOLTON FIELD   LGT SNOW  25  18  74 W9        30.05R WCI  15
RICKENBACK AFB CLOUDY    25  15  67 W18       30.05R WCI  11
NEWARK         CLOUDY    25  14  63 W13       30.02R WCI  14
MARION         CLOUDY    22  14  71 W14       30.01R WCI   9
LANCASTER      LGT SNOW  24  17  74 W10       30.04R WCI  14
ZANESVILLE     LGT SNOW  24  17  74 W8        30.02R WCI  15
NEW PHILLY     LGT SNOW  21  13  71 W7        30.00R WCI  12
$$



USA.gov is the U.S. government's official web portal to all federal, state and local government web resources and services.